"Time","Temp","Dewpoint","Humidity","Pressure","Direction","Speed","Gust","Precip","PrecipRate"
"00:04:57","75.9","69.3","80","29.91","290","0.5","2.3","0.00","0.00"
"00:09:57","75.7","69.1","80.1","29.91","288","1.2","3","0.00","0.00"
"00:14:59","75.4","69.2","81","29.91","288","0.8","2.3","0.00","0.00"
"00:19:58","75","69.1","81.8","29.91","288","0.4","2.3","0.00","0.00"
"00:24:59","74.8","68.9","82","29.91","288","0","1","0.00","0.00"
"00:29:57","74.6","68.8","82.2","29.91","288","0","0","0.00","0.00"
"00:34:58","74.4","68.9","83","29.91","288","0","0","0.00","0.00"
"00:39:56","74.2","68.7","83","29.91","288","0","0","0.00","0.00"
"00:44:58","73.9","68.8","83.8","29.91","288","0","0","0.00","0.00"
"00:49:56","73.8","68.9","84.7","29.90","288","0","0","0.00","0.00"
"00:54:57","73.6","68.8","85","29.90","288","0","0","0.00","0.00"
"00:59:55","73.4","68.6","85","29.90","288","0","0","0.00","0.00"
"01:04:57","73.3","68.5","85","29.90","288","0","0","0.00","0.00"
"01:09:59","73.1","68.3","85","29.90","288","0","0","0.00","0.00"
"01:14:56","72.9","68.1","85","29.90","288","0","0","0.00","0.00"
"01:19:58","72.7","68.2","85.8","29.90","288","0","0","0.00","0.00"
"01:24:59","72.4","68.1","86.2","29.90","288","0","0","0.00","0.00"
"01:29:56","72.2","68.1","87","29.90","288","0","0","0.00","0.00"
"01:34:58","72","68","87.2","29.90","288","0","0","0.00","0.00"
"01:39:59","72","68.2","88","29.90","288","0","0","0.00","0.00"
"01:44:56","71.9","68.2","88","29.90","288","0","0","0.00","0.00"
"01:49:58","71.7","68","88","29.90","288","0","0","0.00","0.00"
"01:54:59","71.6","68","88.5","29.90","288","0","0","0.00","0.00"
"01:59:57","71.5","68.1","89","29.90","288","0","0","0.00","0.00"
"02:04:59","71.5","68.1","89","29.90","288","0","0","0.00","0.00"
"02:09:58","71.6","68.2","89","29.90","288","0","0","0.00","0.00"
"02:14:59","71.5","68.1","89","29.90","288","0","0","0.00","0.00"
"02:19:57","71.3","67.9","89","29.89","288","0","0","0.00","0.00"
"02:24:58","71.1","67.9","89.5","29.89","288","0","0","0.00","0.00"
"02:29:56","71","67.9","89.9","29.89","288","0","0","0.00","0.00"
"02:34:57","70.9","67.8","90","29.89","288","0","0","0.00","0.00"
"02:39:58","70.9","67.8","90.2","29.89","288","0","0","0.00","0.00"
"02:44:56","70.8","67.9","90.7","29.89","288","0","0","0.00","0.00"
"02:49:57","70.8","68","91","29.89","288","0","0","0.00","0.00"
"02:54:58","70.7","67.9","91","29.89","288","0","0","0.00","0.00"
"02:59:56","70.6","67.8","91","29.89","288","0","0","0.00","0.00"
"03:04:57","70.6","67.8","91","29.89","288","0","0","0.00","0.00"
"03:09:56","70.5","67.7","91","29.89","288","0","0","0.00","0.00"
"03:14:57","70.4","67.8","91.6","29.89","288","0","0","0.00","0.00"
"03:19:59","70.3","67.9","92","29.89","288","0","0","0.00","0.00"
"03:24:57","70.2","67.8","92","29.89","288","0","0","0.00","0.00"
"03:29:59","70.1","67.7","92","29.89","288","0","0","0.00","0.00"
"03:34:59","69.9","67.6","92","29.89","288","0","0","0.00","0.00"
"03:39:59","69.8","67.4","92","29.89","288","0","0","0.00","0.00"
"03:44:57","69.8","67.5","92.5","29.89","288","0","0","0.00","0.00"
"03:49:59","69.8","67.6","92.9","29.89","288","0","0","0.00","0.00"
"03:54:56","69.9","67.8","93.2","29.89","288","0","0","0.00","0.00"
"03:59:59","69.9","67.8","93","29.89","288","0","0","0.00","0.00"
"04:04:56","70","68","93.3","29.89","288","0","0","0.00","0.00"
"04:09:58","70.1","68.3","94","29.89","288","0","0","0.00","0.00"
"04:14:59","70.1","68.3","94","29.89","288","0","0","0.00","0.00"
"04:19:56","70.2","68.4","94","29.89","288","0","0","0.00","0.00"
"04:24:57","70.3","68.5","93.9","29.89","288","0","0","0.00","0.00"
"04:29:58","70.4","68.4","93.1","29.89","288","0","0","0.00","0.00"
"04:34:59","70.6","68.5","93","29.89","288","0","0","0.00","0.00"
"04:39:56","70.7","68.6","93","29.89","288","0","0","0.00","0.00"
"04:44:57","70.8","68.7","93","29.89","288","0","0","0.00","0.00"
"04:49:58","70.8","68.6","92.7","29.89","288","0","0","0.00","0.00"
"04:54:56","70.8","68.4","92.2","29.89","288","0","0","0.00","0.00"
"04:59:58","70.7","68.3","92","29.89","288","0","0","0.00","0.00"
"05:04:59","70.8","68.4","92","29.89","288","0","0","0.00","0.00"
"05:09:58","70.8","68.4","92","29.89","288","0","0","0.00","0.00"
"05:14:59","71","68.6","92","29.89","288","0","0","0.00","0.00"
"05:19:58","71","68.6","92","29.89","288","0","0","0.00","0.00"
"05:24:59","71.1","68.7","92","29.89","288","0","0","0.00","0.00"
"05:29:57","71.1","68.7","92","29.89","288","0","0","0.00","0.00"
"05:34:59","71","68.6","92","29.89","288","0","0","0.00","0.00"
"05:39:58","70.9","68.5","92","29.89","288","0","0","0.00","0.00"
"05:44:56","70.7","68.3","92","29.89","288","0","0","0.00","0.00"
"05:49:59","70.6","68.2","92","29.89","288","0","0","0.00","0.00"
"05:54:57","70.6","68.2","92","29.89","288","0","0","0.00","0.00"
"05:59:59","70.5","68.3","92.6","29.89","288","0","0","0.00","0.00"
"06:04:57","70.5","68.4","93","29.89","288","0","0","0.00","0.00"
"06:09:56","70.4","68.3","93","29.89","288","0","0","0.00","0.00"
"06:14:59","70.2","68.1","93","29.90","288","0","0","0.00","0.00"
"06:19:58","70.1","68","93","29.90","288","0","0","0.00","0.00"
"06:24:57","70","67.9","93","29.90","288","0","0","0.00","0.00"
"06:29:56","69.8","67.7","93","29.90","288","0","0","0.00","0.00"
"06:34:59","69.7","67.6","93","29.90","288","0","0","0.00","0.00"
"06:39:56","69.7","67.8","93.8","29.90","288","0","0","0.00","0.00"
"06:44:58","69.7","67.6","93.1","29.90","288","0","0","0.00","0.00"
"06:49:56","69.7","67.6","93","29.90","288","0","0","0.00","0.00"
"06:54:57","69.7","67.6","93","29.90","288","0","0","0.00","0.00"
"06:59:59","69.7","67.6","93","29.90","288","0","0","0.00","0.00"
"07:04:56","69.8","67.9","93.6","29.90","288","0","0","0.00","0.00"
"07:09:58","69.8","67.8","93.2","29.90","288","0","0","0.00","0.00"
"07:14:56","70","67.9","93","29.90","288","0","0","0.00","0.00"
"07:19:57","70.2","68.3","93.5","29.90","288","0","0","0.00","0.00"
"07:24:58","70.5","68.3","92.9","29.90","288","0","0","0.00","0.00"
"07:29:56","70.8","68.5","92.3","29.91","288","0","0","0.00","0.00"
"07:34:57","71.3","68.8","91.7","29.91","293","0.1","2","0.00","0.00"
"07:39:59","71.9","68.5","89.1","29.91","293","1","2.3","0.00","0.00"
"07:44:57","72.7","68.6","87","29.91","312","0.5","3.5","0.00","0.00"
"07:49:58","73.4","68.8","85.6","29.91","313","0.1","3","0.00","0.00"
"07:54:59","73.9","69.2","85.2","29.91","313","0","1","0.00","0.00"
"07:59:59","74.5","69.2","83.5","29.91","313","0.5","2.3","0.00","0.00"
"08:04:56","75.1","69.5","82.9","29.91","291","0.4","2.3","0.00","0.00"
"08:09:58","75.7","69.4","81","29.91","282","1.3","3.5","0.00","0.00"
"08:14:59","76.3","69.8","80.3","29.91","227","1.1","3","0.00","0.00"
"08:19:59","76.8","69.6","78.6","29.91","290","1.8","5","0.00","0.00"
"08:24:56","77.2","69.6","77.6","29.91","254","1.2","3.5","0.00","0.00"
"08:29:57","77.4","69.6","77","29.92","239","0.8","2.3","0.00","0.00"
"08:34:57","77.6","69.8","77","29.92","241","0.9","3","0.00","0.00"
"08:39:58","77.9","70.2","77.2","29.92","252","0.9","4","0.00","0.00"
"08:44:58","78.2","70.1","76.3","29.92","308","1.3","5","0.00","0.00"
"08:49:55","78.5","69.9","75.1","29.92","276","2","4.6","0.00","0.00"
"08:54:58","78.8","69.9","74.3","29.92","263","1.7","6","0.00","0.00"
"08:59:58","79.2","70.4","74.6","29.92","346","1.8","6","0.00","0.00"
"09:04:58","79.5","70.4","73.7","29.92","279","2.2","6","0.00","0.00"
"09:09:59","79.7","70.2","72.8","29.92","305","1.9","5","0.00","0.00"
"09:14:55","79.8","70.1","72.2","29.92","305","2.2","4.6","0.00","0.00"
"09:19:56","80","70.5","72.8","29.92","344","1.3","4","0.00","0.00"
"09:24:59","80.3","70.3","71.6","29.92","308","1.8","6","0.00","0.00"
"09:29:59","80.6","70.4","71.4","29.92","282","1.7","5","0.00","0.00"
"09:34:59","80.8","71","72.2","29.92","294","1.2","5","0.00","0.00"
"09:39:58","81.1","70.9","71.2","29.92","270","1.6","4","0.00","0.00"
"09:44:58","81.4","71","70.6","29.92","297","1.5","6","0.00","0.00"
"09:49:58","81.6","70.9","70","29.92","331","2","5.8","0.00","0.00"
"09:54:59","81.8","70.9","69.8","29.92","333","1.3","4","0.00","0.00"
"09:59:58","81.9","70.6","68.7","29.92","289","2.2","5","0.00","0.00"
"10:04:59","82","70.7","68.6","29.92","289","1.4","5","0.00","0.00"
"10:09:57","82.3","71.2","69.3","29.92","289","2","4","0.00","0.00"
"10:14:59","82.6","71.3","68.9","29.92","297","2","4","0.00","0.00"
"10:19:59","82.9","71.9","69.6","29.92","255","1.8","4","0.00","0.00"
"10:24:58","83.1","71.4","67.9","29.92","254","2","5","0.00","0.00"
"10:29:56","83.3","71.7","68.1","29.92","290","2","6","0.00","0.00"
"10:34:59","83.5","71.5","67.1","29.92","316","1.8","4.6","0.00","0.00"
"10:39:59","83.7","71.1","66.1","29.92","310","2.6","6","0.00","0.00"
"10:44:58","83.7","71.4","66.6","29.92","235","2.4","4","0.00","0.00"
"10:49:58","83.9","71.6","66.6","29.92","255","2.6","7","0.00","0.00"
"10:54:57","84.1","72","66.9","29.92","253","1.9","5","0.00","0.00"
"10:59:56","84.2","71.1","64.8","29.92","321","3","9","0.00","0.00"
"11:04:57","83.9","71","65.2","29.92","329","2.6","6","0.00","0.00"
"11:09:59","84","71.3","65.8","29.92","295","2.8","7","0.00","0.00"
"11:14:58","84.1","71.7","66.4","29.93","326","2.6","6.9","0.00","0.00"
"11:19:58","84.3","71.3","65.1","29.93","341","2.7","7","0.00","0.00"
"11:24:58","84.6","72.2","66.3","29.93","223","2.5","7","0.00","0.00"
"11:29:58","85.1","72.1","65.3","29.93","263","1.8","5","0.00","0.00"
"11:34:56","85.3","71.6","63.8","29.93","308","3","6","0.00","0.00"
"11:39:59","85.2","71.7","64.1","29.93","209","2.7","6","0.00","0.00"
"11:44:59","84.7","70.8","63.1","29.93","323","2.5","8.1","0.00","0.00"
"11:49:59","84.1","71.5","66","29.93","332","2.7","6","0.00","0.00"
"11:54:58","84","71.7","66.4","29.93","314","2.9","10.4","0.00","0.00"
"11:59:59","84.4","71.4","65.1","29.93","288","1.8","5.8","0.00","0.00"
"12:04:59","85.1","72.7","66.4","29.92","298","2.5","6","0.00","0.00"
"12:09:57","85.7","72.7","65.3","29.92","329","2.3","6","0.00","0.00"
"12:14:56","85.5","71.5","63","29.93","302","1.9","5","0.00","0.00"
"12:19:56","85.1","71.6","64.1","29.93","281","1.8","4","0.00","0.00"
"12:24:59","84.9","71.7","64.7","29.93","262","1.9","5","0.00","0.00"
"12:29:59","84.9","72.1","65.7","29.93","343","2.9","6","0.00","0.00"
"12:34:58","84.9","72.5","66.5","29.92","345","2.2","7","0.00","0.00"
"12:39:58","84.4","71.3","64.9","29.92","347","4","10","0.00","0.00"
"12:44:57","83.8","70.6","64.5","29.92","337","1.8","6.9","0.00","0.00"
"12:49:57","83.6","70.8","65.6","29.92","349","1.8","4.6","0.00","0.00"
"12:54:56","83.9","71.7","66.9","29.92","285","2.6","6","0.00","0.00"
"12:59:56","84.5","72.1","66.5","29.92","319","2.2","5","0.00","0.00"
"13:04:56","85.1","72.2","65.3","29.92","337","3.4","9.2","0.00","0.00"
"13:09:58","85.4","72.2","64.8","29.92","319","1.9","5.8","0.00","0.00"
"13:14:58","85.7","71.6","62.9","29.92","321","1.8","4.6","0.00","0.00"
"13:19:58","86.1","71.9","62.8","29.91","304","2.2","6","0.00","0.00"
"13:24:57","86.4","71.6","61.3","29.91","328","3","8.1","0.00","0.00"
"13:29:57","86.4","71.2","60.6","29.91","319","2.4","6","0.00","0.00"
"13:34:57","86.3","70.9","60.2","29.90","316","2.6","5","0.00","0.00"
"13:39:56","86.7","71.5","60.9","29.90","318","3.9","11","0.00","0.00"
"13:44:56","87.1","72","61.1","29.90","279","1.9","4","0.00","0.00"
"13:49:56","87.7","72.4","60.7","29.89","329","2.3","6","0.00","0.00"
"13:54:59","87.9","71.2","57.7","29.89","321","3.1","10","0.00","0.00"
"13:59:56","88","71.1","57.3","29.89","346","2.7","6","0.00","0.00"
"14:04:57","88.2","70.9","56.8","29.89","313","2.7","6","0.00","0.00"
"14:09:58","88.3","70.3","55.6","29.89","337","3.1","7","0.00","0.00"
"14:14:58","88.2","70.2","55.5","29.89","337","3.1","7","0.00","0.00"
"14:19:57","88.2","69.7","54.5","29.89","292","3.1","10","0.00","0.00"
"14:24:56","88.2","67.6","50.7","29.89","264","4.2","10.4","0.00","0.00"
"14:29:57","87.9","68.3","52.3","29.89","251","3.2","9.2","0.00","0.00"
"14:34:56","88.4","68.7","52.4","29.89","344","4.4","12","0.00","0.00"
"14:39:55","88.4","68.3","51.6","29.89","312","2.9","9","0.00","0.00"
"14:44:55","88.7","68.9","52.2","29.89","317","3.2","10.4","0.00","0.00"
"14:49:59","89","69.8","53.2","29.89","338","2.3","5.8","0.00","0.00"
"14:54:59","89.2","69.2","51.7","29.89","328","6.3","21","0.00","0.00"
"14:59:59","87.4","68.1","52.9","29.89","352","7","17.3","0.00","0.00"
"15:04:55","86.1","68.3","55.4","29.89","343","4.6","12","0.00","0.00"
"15:09:57","85.7","66.4","52.6","29.89","339","5.1","14","0.00","0.00"
"15:14:57","85.2","65.5","52","29.89","347","6","14","0.00","0.00"
"15:19:57","85.5","66.8","53.8","29.89","335","4.8","14","0.00","0.00"
"15:24:57","86","66.7","52.6","29.89","352","4.5","11.5","0.00","0.00"
"15:29:58","85.9","66.1","51.7","29.90","339","3.2","9.2","0.00","0.00"
"15:34:58","85.5","66","52.3","29.90","349","1.7","6","0.00","0.00"
"15:39:58","85.2","66.4","53.5","29.90","333","2.8","6","0.00","0.00"
"15:44:55","85","66.4","53.8","29.90","340","1.9","5","0.00","0.00"
"15:49:56","84.9","66.8","54.9","29.90","328","2.1","11","0.00","0.00"
"15:54:57","84.3","68.3","58.8","29.90","304","3.3","11.5","0.00","0.00"
"15:59:58","82.9","70.7","66.6","29.91","321","1.2","3.5","0.00","0.00"
"16:04:58","81.3","69.9","68.6","29.91","322","2.8","7","0.00","0.00"
"16:09:56","80.1","68.2","67.3","29.91","306","2.1","6.9","0.00","0.00"
"16:14:57","80.1","69.4","70","29.91","330","1.9","4","0.00","0.00"
"16:19:58","80.9","70.8","71.4","29.90","331","1.3","4","0.00","0.00"
"16:24:58","81.8","70.2","67.8","29.90","325","2.4","5","0.00","0.00"
"16:29:59","82.2","70.8","68.5","29.90","331","1.5","4","0.00","0.00"
"16:34:59","82.8","70.2","65.9","29.90","325","1.5","5","0.00","0.00"
"16:39:59","83.2","70.1","64.8","29.90","322","1","3.5","0.00","0.00"
"16:44:56","83.6","69.3","62.3","29.90","333","1.7","4","0.00","0.00"
"16:49:57","83.6","68.4","60.5","29.89","333","1","3.5","0.00","0.00"
"16:54:57","83.3","67.9","59.8","29.89","329","1.4","3.5","0.00","0.00"
"16:59:59","83","68.1","61","29.90","316","2","6","0.00","0.00"
"17:04:56","82.6","69.7","65.3","29.90","302","3","9.2","0.00","0.00"
"17:09:58","81.8","70.7","69.1","29.90","285","1.4","3.5","0.00","0.00"
"17:14:59","81.1","71.1","71.9","29.91","322","1.3","7","0.00","0.00"
"17:19:56","80.7","70.7","71.7","29.91","328","4","16","0.01","0.00"
"17:24:57","80.4","69.5","69.4","29.91","340","4.1","16.1","0.01","0.01"
"17:29:58","80.5","69.9","70.2","29.92","352","5.5","19","0.01","0.01"
"17:34:59","80.3","68.6","67.5","29.92","341","4.1","19.6","0.01","0.01"
"17:39:57","80.2","67.9","66.1","29.92","1","1.7","6.9","0.01","0.01"
"17:44:59","80.2","67.4","65","29.92","10","1.2","5","0.01","0.01"
"17:49:57","80.1","67.6","65.9","29.91","327","0.6","4.6","0.01","0.01"
"17:54:55","80.2","68.1","66.6","29.91","353","0.9","3.5","0.01","0.01"
"17:59:58","80.5","68.1","66.1","29.91","341","1.6","5","0.01","0.01"
"18:04:56","80.8","68","65.3","29.91","356","0.4","3","0.01","0.01"
"18:09:58","80.9","68.3","65.6","29.91","342","1.2","5","0.01","0.01"
"18:14:59","81.3","69.1","66.5","29.91","337","0.7","3.5","0.01","0.01"
"18:19:57","81.7","69.1","65.6","29.91","336","0.9","3.5","0.01","0.01"
"18:24:59","82","68.7","64.2","29.91","336","0.6","3","0.01","0.00"
"18:29:56","82.1","68.4","63.3","29.91","336","1.1","4","0.01","0.00"
"18:34:59","82","67.7","62","29.90","326","1.6","4","0.01","0.00"
"18:39:56","81.6","67.4","62.1","29.90","321","2.1","4","0.01","0.00"
"18:44:59","81.3","67.2","62.4","29.91","321","2","4","0.01","0.00"
"18:49:57","81.1","67.3","62.9","29.91","323","1.3","3.5","0.01","0.00"
"18:54:59","81","67.8","64.2","29.91","324","0.8","2.3","0.01","0.00"
"18:59:57","80.8","68.4","65.9","29.92","324","0.3","4","0.01","0.00"
"19:04:58","80.8","68.4","66","29.92","324","1.2","3.5","0.01","0.00"
"19:09:59","80.8","68.3","65.8","29.92","322","1.2","3.5","0.01","0.00"
"19:14:58","80.8","67.9","65","29.92","319","1.7","3.5","0.01","0.00"
"19:19:59","80.8","68.2","65.7","29.92","319","1.1","3.5","0.01","0.00"
"19:24:57","80.7","68.2","65.8","29.92","319","0.4","2.3","0.01","0.00"
"19:29:59","80.6","68.1","65.8","29.92","319","0.2","1.2","0.01","0.00"
"19:34:56","80.5","68.1","66","29.92","317","0.9","3.5","0.01","0.00"
"19:39:58","80.3","68.1","66.5","29.92","317","0.8","2.3","0.01","0.00"
"19:44:56","80.1","68.4","67.6","29.93","317","0.1","1.2","0.01","0.00"
"19:49:57","79.8","68.7","68.9","29.93","317","0.3","2","0.01","0.00"
"19:54:58","79.6","69.3","70.7","29.93","317","0.6","2.3","0.01","0.00"
"19:59:56","79.5","69.7","72","29.94","314","0","0","0.01","0.00"
"20:04:54","79.4","70.1","73.2","29.94","314","0.1","1.2","0.01","0.00"
"20:09:56","79.2","70.1","73.8","29.94","314","0.5","2.3","0.01","0.00"
"20:14:57","79","70.2","74.7","29.95","314","0.2","2","0.01","0.00"
"20:19:59","78.7","70.2","75.4","29.95","314","0.1","1.2","0.01","0.00"
"20:24:58","78.4","70.3","76.4","29.95","314","0.2","1.2","0.01","0.00"
"20:29:59","78.2","70.4","77","29.95","314","0.7","2.3","0.01","0.00"
"20:34:59","77.9","70.4","77.5","29.95","314","0.7","2.3","0.01","0.00"
"20:39:56","77.7","70.3","78","29.95","314","0.6","2","0.01","0.00"
"20:44:58","77.4","70","78","29.96","314","0.4","2.3","0.01","0.00"
"20:49:59","77.1","70.1","79","29.96","314","0.1","2.3","0.01","0.00"
"20:54:59","76.7","69.7","79","29.96","314","0.6","2.3","0.01","0.00"
"20:59:59","76.4","69.1","78.3","29.96","315","0.5","3","0.01","0.00"
"21:04:58","76.2","68.7","77.6","29.96","323","0.9","6","0.01","0.00"
"21:09:56","76.2","68.5","77","29.96","337","1.6","5","0.01","0.00"
"21:14:58","76.3","68.2","76","29.97","347","1.2","3.5","0.01","0.00"
"21:19:58","76.4","67.9","75","29.97","343","1.2","7","0.01","0.00"
"21:24:58","76.6","67.4","73.2","29.97","340","2.8","7","0.01","0.00"
"21:29:58","76.8","67.8","73.7","29.99","16","2.1","7","0.01","0.00"
"21:34:58","76.8","68.3","74.8","29.99","343","1.7","6","0.01","0.00"
"21:39:59","76.7","67.8","74","29.99","338","1.8","5.8","0.01","0.00"
"21:44:59","76.4","67.2","73.3","30.00","333","2","6","0.01","0.00"
"21:49:56","76","65.9","71","30.00","2","1.6","5.8","0.01","0.00"
"21:54:56","75.7","65.2","70.1","30.00","339","1.9","9.2","0.01","0.00"
"21:59:57","75.4","65","70.2","30.01","338","1.4","7","0.01","0.00"
"22:04:56","75.1","64.8","70.3","30.01","315","1.2","4","0.01","0.00"
"22:09:58","74.9","64.9","71","30.01","332","1","5","0.01","0.00"
"22:14:58","74.7","64.8","71.3","30.03","327","0.5","3.5","0.01","0.00"
"22:19:59","74.3","64.7","72","30.03","318","0.6","3.5","0.01","0.00"
"22:24:56","74.1","64.5","72","30.03","317","0.5","2.3","0.01","0.00"
"22:29:57","73.9","64.5","72.5","30.03","317","0.1","2.3","0.01","0.00"
"22:34:57","73.6","64.5","73.2","30.03","317","0.4","2.3","0.01","0.00"
"22:39:57","73.4","64.6","74","30.03","317","0.2","2.3","0.01","0.00"
"22:44:58","73.1","64.3","74","30.03","317","0","1.2","0.01","0.00"
"22:49:58","72.8","64.4","75","30.03","317","0","1.2","0.01","0.00"
"22:54:56","72.5","64.4","75.9","30.03","317","0","0","0.01","0.00"
"22:59:56","72.2","64.4","76.6","30.04","317","0","0","0.01","0.00"
"23:04:59","71.9","64.3","77","30.04","317","0","0","0.01","0.00"
"23:09:58","71.6","64.1","77.2","30.04","317","0","0","0.01","0.00"
"23:14:59","71.4","64.1","77.7","30.04","317","0","0","0.01","0.00"
"23:19:56","71.2","64","78","30.04","317","0","0","0.01","0.00"
"23:24:56","71","63.8","78.1","30.04","317","0","0","0.01","0.00"
"23:29:57","70.8","64","79","30.05","317","0","0","0.01","0.00"
"23:34:58","70.6","63.9","79.3","30.05","317","0","0","0.01","0.00"
"23:39:58","70.4","63.9","80.1","30.05","317","0","0","0.01","0.00"
"23:44:59","70.3","64.2","81","30.06","317","0","0","0.01","0.00"
"23:49:59","70.1","64","81","30.06","317","0","0","0.01","0.00"
"23:54:57","70.1","64.2","81.9","30.06","317","0","0","0.01","0.00"
"23:59:58","69.9","64.2","82","30.06","317","0","0","0.01","0.00"
